Location: Newark
(35.2672°N, 80.7344°W)
Time: 20:39:02
(UTC+00:00)

Vanguard 2 Rocket - Pass Details

Date: 25 January 2020
Orbit: 553 x 3327 km, 32.9° (Epoch: 23 February)

Event Time Altitude Azimuth Distance (km) Brightness Sun altitude
Rises 18:20:07 0° 261° (W) 5,250 11.0 34.7°
Reaches altitude 10° 18:26:17 10° 237° (WSW) 4,870 11.4 34.4°
Maximum altitude 18:31:50 13° 214° (SSW) 5,071 12.1 34.1°
Drops below altitude 10° 18:38:16 10° 191° (SSW) 5,772 12.4 33.8°
Sets 18:47:39 0° 169° (S) 7,192 12.3 33.1°
